CW7762 Weather Reports


time (UTC)temp
F
wind
direction
speed
knots
gust
knots
rain 1hr
in
rain 24hr
in
rain mn
in
humidity
%
barometer
mb
20260906103123 68 36 3.5 3.5 0.00 0.00 0.00 92 1017.4
20260906100123 69 43 0.0 6.1 0.00 0.00 0.00 91 1017.1
20260906093123 70 53 0.0 4.3 0.00 0.00 0.00 91 1017.1
20260906083123 71 54 0.9 8.7 0.00 0.00 0.00 91 1017.0
20260906080123 71 44 1.7 8.7 0.00 0.00 0.00 90 1017.3
20260906073123 72 55 4.3 7.8 0.00 0.00 0.00 90 1017.5
20260906063123 72 46 0.0 8.7 0.00 0.00 0.00 89 1017.4
20260906060123 72 45 0.9 8.7 0.00 0.00 0.00 89 1017.3
20260906053123 72 35 7.0 10.4 0.00 0.00 0.00 89 1016.9
20260906050123 73 53 5.2 15.6 0.00 0.00 0.00 90 1016.5
20260906043123 73 360 0.9 12.2 0.00 0.00 0.00 90 1016.1
20260906023123 72 34 5.2 13.9 0.00 0.00 0.00 87 1015.9
20260906020123 73 5 8.7 13.9 0.00 0.00 0.00 86 1016.1
20260906013122 73 17 7.0 17.4 0.00 0.00 0.00 84 1015.9
20260906010123 73 340 3.5 18.2 0.00 0.00 0.00 83 1015.6
20260906000123 76 360 12.2 15.6 0.00 0.00 0.00 81 1015.1
20260905223123 79 11 11.3 14.8 0.00 0.00 0.00 78 1014.4
20260905220122 81 27 8.7 18.2 0.00 0.00 0.00 75 1014.4
20260905210122 83 344 6.1 18.2 0.00 0.00 0.00 74 1014.1
20260905203122 84 44 17.4 19.1 0.00 0.00 0.00 70 1014.3
20260905200122 84 49 6.1 17.4 0.00 0.00 0.00 71 1014.1
20260905193122 85 34 7.0 20.0 0.00 0.00 0.00 70 1014.4
20260905190125 85 344 6.1 14.8 0.00 0.00 0.00 71 1014.4
20260905180122 85 51 9.6 12.2 0.00 0.00 0.00 74 1014.5
20260905173122 85 34 7.0 14.8 0.00 0.00 0.00 72 1014.5
20260905170122 85 350 4.3 14.8 0.00 0.00 0.00 76 1014.7
20260905163122 84 346 1.7 11.3 0.00 0.00 0.00 77 1014.8
20260905160122 83 22 3.5 12.2 0.00 0.00 0.00 79 1014.7
20260905153122 83 21 4.3 13.9 0.00 0.00 0.00 81 1014.4
20260905150121 83 332 1.7 11.3 0.00 0.00 0.00 81 1014.2
20260905143122 81 36 4.3 8.7 0.00 0.00 0.00 85 1014.0
20260905140122 79 360 3.5 7.8 0.00 0.00 0.00 92 1013.9
20260905130122 77 325 1.7 4.3 0.00 0.00 0.00 93 1013.7
20260905123121 76 306 0.0 11.3 0.00 0.00 0.00 93 1013.5
20260905120122 76 232 1.7 6.1 0.00 0.00 0.00 93 1013.2
20260905113122 76 222 0.9 3.5 0.00 0.00 0.00 93 1013.1